| time (UTC) | temp F | wind direction | speed MPH | gust MPH | rain 1hr in | rain 24hr in | rain mn in | humidity % | barometer mb |
| 20260831014918 | 65 | 257 | 0.0 | 0.0 | 0.00 | 0.01 | 0.01 | 88 | 1019.8 |
| 20260831014417 | 65 | 257 | 0.0 | 0.0 | 0.00 | 0.01 | 0.01 | 88 | 1019.8 |
| 20260831013924 | 65 | 257 | 0.0 | 0.0 | 0.00 | 0.01 | 0.01 | 88 | 1019.9 |
| 20260831013517 | 65 | 257 | 0.0 | 0.0 | 0.00 | 0.01 | 0.01 | 88 | 1019.9 |
| 20260831012912 | 65 | 257 | 0.0 | 0.0 | 0.00 | 0.01 | 0.01 | 87 | 1019.9 |
| 20260831012422 | 66 | 257 | 0.0 | 0.0 | 0.00 | 0.01 | 0.01 | 87 | 1019.9 |
| 20260831011915 | 66 | 257 | 0.0 | 0.0 | 0.00 | 0.01 | 0.01 | 87 | 1019.9 |
| 20260831011420 | 66 | 257 | 0.0 | 0.0 | 0.00 | 0.01 | 0.01 | 87 | 1019.8 |
| 20260831010946 | 66 | 257 | 0.0 | 0.0 | 0.00 | 0.01 | 0.01 | 87 | 1019.7 |
| 20260831010424 | 66 | 257 | 0.0 | 0.0 | 0.00 | 0.01 | 0.01 | 87 | 1019.6 |
| 20260831005933 | 66 | 257 | 0.0 | 0.0 | 0.00 | 0.01 | 0.01 | 87 | 1019.5 |
| 20260831005422 | 66 | 257 | 0.0 | 0.0 | 0.00 | 0.01 | 0.01 | 86 | 1019.5 |
| 20260831004927 | 66 | 257 | 0.0 | 0.0 | 0.00 | 0.01 | 0.01 | 86 | 1019.4 |
| 20260831004414 | 66 | 257 | 0.0 | 0.0 | 0.00 | 0.01 | 0.01 | 86 | 1019.4 |
| 20260831003924 | 67 | 257 | 0.0 | 0.0 | 0.00 | 0.01 | 0.01 | 86 | 1019.3 |
| 20260831003454 | 67 | 257 | 0.0 | 0.0 | 0.00 | 0.01 | 0.01 | 86 | 1019.2 |
| 20260831002927 | 67 | 257 | 0.0 | 0.0 | 0.00 | 0.01 | 0.01 | 86 | 1019.1 |
| 20260831002414 | 67 | 257 | 0.0 | 0.0 | 0.00 | 0.01 | 0.01 | 86 | 1019.0 |
| 20260831001914 | 67 | 257 | 0.0 | 0.0 | 0.00 | 0.01 | 0.01 | 86 | 1018.9 |
| 20260831001414 | 67 | 257 | 0.0 | 0.0 | 0.00 | 0.01 | 0.01 | 86 | 1018.8 |
| 20260831000913 | 67 | 257 | 0.0 | 0.0 | 0.00 | 0.01 | 0.01 | 86 | 1018.8 |
| 20260831000427 | 67 | 257 | 0.0 | 0.0 | 0.00 | 0.01 | 0.01 | 86 | 1018.8 |
| 20260830235924 | 68 | 257 | 0.0 | 0.0 | 0.00 | 0.01 | 0.01 | 86 | 1018.8 |
| 20260830235429 | 68 | 257 | 0.0 | 0.0 | 0.00 | 0.01 | 0.01 | 86 | 1018.8 |
| 20260830234926 | 68 | 257 | 0.0 | 0.0 | 0.00 | 0.01 | 0.01 | 85 | 1018.8 |
| 20260830234433 | 68 | 257 | 0.0 | 0.0 | 0.00 | 0.01 | 0.01 | 85 | 1018.7 |
| 20260830233918 | 68 | 257 | 0.0 | 0.0 | 0.00 | 0.01 | 0.01 | 85 | 1018.6 |
| 20260830233437 | 68 | 257 | 0.0 | 0.0 | 0.00 | 0.01 | 0.01 | 86 | 1018.6 |
| 20260830232916 | 69 | 257 | 0.0 | 0.0 | 0.00 | 0.01 | 0.01 | 86 | 1018.6 |
| 20260830232412 | 69 | 257 | 0.0 | 0.0 | 0.00 | 0.01 | 0.01 | 86 | 1018.5 |
| 20260830231919 | 69 | 257 | 0.0 | 0.0 | 0.00 | 0.01 | 0.01 | 86 | 1018.7 |
| 20260830231439 | 69 | 257 | 0.0 | 0.0 | 0.00 | 0.01 | 0.01 | 86 | 1018.7 |
| 20260830230919 | 69 | 257 | 0.0 | 0.0 | 0.00 | 0.01 | 0.01 | 86 | 1018.7 |
| 20260830230422 | 69 | 257 | 0.0 | 0.0 | 0.00 | 0.01 | 0.01 | 86 | 1018.7 |
| 20260830225953 | 69 | 257 | 0.0 | 0.0 | 0.00 | 0.01 | 0.01 | 86 | 1018.7 |
| 20260830225417 | 69 | 257 | 0.0 | 0.0 | 0.00 | 0.01 | 0.01 | 86 | 1018.7 |
| 20260830224913 | 69 | 257 | 0.0 | 2.0 | 0.00 | 0.01 | 0.01 | 86 | 1018.7 |
| 20260830224434 | 69 | 257 | 0.0 | 3.0 | 0.00 | 0.01 | 0.01 | 86 | 1018.7 |
| 20260830223921 | 69 | 259 | 1.0 | 3.0 | 0.00 | 0.01 | 0.01 | 86 | 1018.7 |
| 20260830223428 | 69 | 255 | 1.0 | 2.0 | 0.00 | 0.01 | 0.01 | 87 | 1018.8 |
| 20260830222958 | 69 | 265 | 0.0 | 2.0 | 0.00 | 0.01 | 0.01 | 87 | 1018.7 |
| 20260830222412 | 69 | 265 | 0.0 | 2.0 | 0.00 | 0.01 | 0.01 | 87 | 1018.6 |
| 20260830221945 | 69 | 265 | 0.0 | 0.0 | 0.00 | 0.01 | 0.01 | 87 | 1018.6 |
| 20260830221416 | 69 | 265 | 0.0 | 0.0 | 0.00 | 0.01 | 0.01 | 87 | 1018.8 |
| 20260830220915 | 70 | 265 | 0.0 | 0.0 | 0.00 | 0.01 | 0.01 | 87 | 1018.8 |
| 20260830220414 | 70 | 266 | 0.0 | 0.0 | 0.00 | 0.01 | 0.01 | 87 | 1018.8 |
| 20260830215934 | 70 | 266 | 0.0 | 0.0 | 0.00 | 0.01 | 0.01 | 87 | 1018.7 |
| 20260830215420 | 70 | 271 | 0.0 | 0.0 | 0.00 | 0.01 | 0.01 | 87 | 1018.6 |
| 20260830214928 | 70 | 271 | 0.0 | 0.0 | 0.00 | 0.01 | 0.01 | 87 | 1018.6 |
| 20260830214429 | 70 | 277 | 0.0 | 0.0 | 0.00 | 0.01 | 0.01 | 87 | 1018.6 |
| 20260830213922 | 70 | 277 | 0.0 | 2.0 | 0.00 | 0.01 | 0.01 | 87 | 1018.6 |
| 20260830213408 | 70 | 277 | 0.0 | 2.0 | 0.00 | 0.01 | 0.01 | 87 | 1018.7 |
| 20260830212914 | 70 | 277 | 0.0 | 2.0 | 0.00 | 0.01 | 0.01 | 88 | 1018.6 |
| 20260830212434 | 70 | 277 | 0.0 | 2.0 | 0.00 | 0.01 | 0.01 | 88 | 1018.6 |
| 20260830211925 | 70 | 275 | 0.0 | 1.0 | 0.00 | 0.01 | 0.01 | 88 | 1018.6 |
| 20260830211414 | 70 | 275 | 0.0 | 3.0 | 0.00 | 0.01 | 0.01 | 88 | 1018.6 |
| 20260830210919 | 70 | 275 | 0.0 | 0.0 | 0.00 | 0.01 | 0.01 | 88 | 1018.7 |
| 20260830210421 | 70 | 275 | 0.0 | 0.0 | 0.00 | 0.01 | 0.01 | 88 | 1018.7 |
| 20260830205912 | 70 | 275 | 0.0 | 0.0 | 0.00 | 0.01 | 0.01 | 88 | 1018.7 |
| 20260830205418 | 70 | 275 | 0.0 | 3.0 | 0.00 | 0.01 | 0.01 | 88 | 1018.8 |
| 20260830204936 | 70 | 275 | 0.0 | 3.0 | 0.00 | 0.01 | 0.01 | 88 | 1018.8 |
| 20260830204419 | 70 | 275 | 0.0 | 1.0 | 0.00 | 0.01 | 0.01 | 88 | 1018.9 |
| 20260830203923 | 70 | 275 | 0.0 | 3.0 | 0.00 | 0.01 | 0.01 | 88 | 1018.9 |
| 20260830203450 | 70 | 274 | 0.0 | 3.0 | 0.00 | 0.01 | 0.01 | 88 | 1018.9 |
| 20260830202924 | 70 | 274 | 1.0 | 3.0 | 0.00 | 0.01 | 0.01 | 88 | 1018.8 |
| 20260830202437 | 70 | 275 | 0.0 | 2.0 | 0.00 | 0.01 | 0.01 | 89 | 1018.8 |
| 20260830201912 | 70 | 275 | 0.0 | 2.0 | 0.00 | 0.01 | 0.01 | 88 | 1018.7 |
| 20260830201444 | 70 | 275 | 0.0 | 0.0 | 0.00 | 0.01 | 0.01 | 89 | 1018.8 |
| 20260830200945 | 70 | 275 | 0.0 | 0.0 | 0.00 | 0.01 | 0.01 | 88 | 1018.7 |
| 20260830200431 | 70 | 275 | 0.0 | 0.0 | 0.00 | 0.01 | 0.01 | 88 | 1018.7 |
| 20260830195912 | 70 | 275 | 0.0 | 0.0 | 0.00 | 0.01 | 0.01 | 88 | 1018.8 |
| 20260830195424 | 70 | 275 | 0.0 | 0.0 | 0.00 | 0.01 | 0.01 | 89 | 1018.8 |
| 20260830194920 | 69 | 275 | 0.0 | 0.0 | 0.00 | 0.01 | 0.01 | 89 | 1018.8 |
| 20260830194434 | 69 | 275 | 0.0 | 2.0 | 0.00 | 0.01 | 0.01 | 89 | 1018.8 |
| 20260830193918 | 69 | 275 | 0.0 | 4.0 | 0.00 | 0.01 | 0.01 | 89 | 1018.9 |
| 20260830193414 | 69 | 252 | 0.0 | 3.0 | 0.00 | 0.01 | 0.01 | 89 | 1018.9 |
| 20260830192916 | 69 | 252 | 0.0 | 3.0 | 0.00 | 0.01 | 0.01 | 89 | 1019.0 |
| 20260830192413 | 69 | 234 | 0.0 | 2.0 | 0.00 | 0.01 | 0.01 | 89 | 1019.0 |
| 20260830191945 | 69 | 275 | 0.0 | 0.0 | 0.00 | 0.01 | 0.01 | 89 | 1018.9 |
| 20260830191440 | 69 | 275 | 0.0 | 0.0 | 0.00 | 0.01 | 0.01 | 89 | 1018.9 |
| 20260830190913 | 69 | 275 | 0.0 | 0.0 | 0.00 | 0.01 | 0.01 | 88 | 1018.9 |
| 20260830190444 | 69 | 275 | 0.0 | 0.0 | 0.00 | 0.01 | 0.01 | 88 | 1019.0 |
| 20260830185927 | 69 | 275 | 0.0 | 0.0 | 0.00 | 0.01 | 0.01 | 88 | 1019.1 |
| 20260830185428 | 69 | 275 | 0.0 | 0.0 | 0.00 | 0.01 | 0.01 | 88 | 1019.1 |
| 20260830184937 | 69 | 275 | 0.0 | 3.0 | 0.00 | 0.01 | 0.01 | 88 | 1019.3 |
| 20260830184416 | 69 | 275 | 0.0 | 4.0 | 0.00 | 0.01 | 0.01 | 87 | 1019.3 |
| 20260830183940 | 69 | 275 | 1.0 | 4.0 | 0.00 | 0.01 | 0.01 | 87 | 1019.4 |
| 20260830183503 | 69 | 275 | 0.0 | 0.0 | 0.00 | 0.01 | 0.01 | 87 | 1019.4 |
| 20260830182916 | 69 | 275 | 0.0 | 2.0 | 0.00 | 0.01 | 0.01 | 87 | 1019.4 |
| 20260830182427 | 69 | 275 | 0.0 | 0.0 | 0.00 | 0.01 | 0.01 | 88 | 1019.3 |
| 20260830181916 | 69 | 275 | 0.0 | 0.0 | 0.00 | 0.01 | 0.01 | 88 | 1019.3 |
| 20260830181425 | 69 | 275 | 0.0 | 3.0 | 0.00 | 0.01 | 0.01 | 88 | 1019.4 |
| 20260830180914 | 69 | 275 | 0.0 | 0.0 | 0.00 | 0.01 | 0.01 | 88 | 1019.4 |
| 20260830180427 | 69 | 275 | 0.0 | 2.0 | 0.00 | 0.01 | 0.01 | 87 | 1019.4 |
| 20260830175935 | 69 | 275 | 0.0 | 0.0 | 0.00 | 0.01 | 0.01 | 87 | 1019.4 |
| 20260830175413 | 68 | 276 | 0.0 | 0.0 | 0.00 | 0.01 | 0.01 | 87 | 1019.4 |
| 20260830174919 | 68 | 276 | 0.0 | 0.0 | 0.00 | 0.01 | 0.01 | 87 | 1019.5 |
| 20260830174411 | 68 | 276 | 0.0 | 2.0 | 0.01 | 0.01 | 0.01 | 87 | 1019.6 |
| 20260830173941 | 68 | 276 | 0.0 | 2.0 | 0.01 | 0.01 | 0.01 | 87 | 1019.6 |
| 20260830173430 | 69 | 275 | 0.0 | 3.0 | 0.01 | 0.01 | 0.01 | 87 | 1019.6 |
| 20260830172922 | 69 | 275 | 1.0 | 3.0 | 0.01 | 0.01 | 0.01 | 86 | 1019.6 |
| 20260830172451 | 69 | 279 | 0.0 | 3.0 | 0.01 | 0.01 | 0.01 | 86 | 1019.5 |
| 20260830171938 | 69 | 265 | 0.0 | 3.0 | 0.01 | 0.01 | 0.01 | 85 | 1019.6 |
| 20260830171422 | 69 | 269 | 0.0 | 2.0 | 0.01 | 0.01 | 0.01 | 84 | 1019.5 |
| 20260830170926 | 69 | 263 | 0.0 | 2.0 | 0.01 | 0.01 | 0.01 | 84 | 1019.5 |
| 20260830170439 | 69 | 264 | 1.0 | 2.0 | 0.01 | 0.01 | 0.01 | 83 | 1019.5 |
| 20260830165937 | 70 | 264 | 0.0 | 2.0 | 0.01 | 0.01 | 0.01 | 83 | 1019.5 |
| 20260830165422 | 70 | 285 | 0.0 | 2.0 | 0.01 | 0.01 | 0.01 | 82 | 1019.5 |
| 20260830164922 | 70 | 292 | 0.0 | 4.0 | 0.01 | 0.01 | 0.01 | 82 | 1019.6 |
| 20260830164440 | 70 | 292 | 1.0 | 4.0 | 0.00 | 0.00 | 0.00 | 81 | 1019.6 |
| 20260830163931 | 71 | 275 | 1.0 | 3.0 | 0.00 | 0.00 | 0.00 | 81 | 1019.6 |
| 20260830163427 | 71 | 276 | 0.0 | 2.0 | 0.00 | 0.00 | 0.00 | 80 | 1019.6 |
| 20260830162949 | 71 | 276 | 0.0 | 2.0 | 0.00 | 0.00 | 0.00 | 80 | 1019.6 |
| 20260830162432 | 71 | 276 | 0.0 | 2.0 | 0.00 | 0.00 | 0.00 | 80 | 1019.5 |
| 20260830161918 | 71 | 273 | 0.0 | 0.0 | 0.00 | 0.00 | 0.00 | 80 | 1019.4 |
| 20260830161422 | 71 | 273 | 0.0 | 0.0 | 0.00 | 0.00 | 0.00 | 80 | 1019.5 |
| 20260830160915 | 71 | 273 | 0.0 | 0.0 | 0.00 | 0.00 | 0.00 | 80 | 1019.5 |
| 20260830160419 | 71 | 350 | 0.0 | 0.0 | 0.00 | 0.00 | 0.00 | 80 | 1019.5 |
| 20260830155912 | 71 | 350 | 0.0 | 0.0 | 0.00 | 0.00 | 0.00 | 79 | 1019.5 |
| 20260830155439 | 71 | 350 | 0.0 | 0.0 | 0.00 | 0.00 | 0.00 | 78 | 1019.5 |
| 20260830154946 | 71 | 350 | 0.0 | 0.0 | 0.00 | 0.00 | 0.00 | 78 | 1019.4 |
| 20260830154418 | 71 | 350 | 0.0 | 0.0 | 0.00 | 0.00 | 0.00 | 77 | 1019.4 |
| 20260830153926 | 71 | 350 | 0.0 | 0.0 | 0.00 | 0.00 | 0.00 | 77 | 1019.3 |
| 20260830153433 | 71 | 350 | 0.0 | 0.0 | 0.00 | 0.00 | 0.00 | 77 | 1019.3 |
| 20260830152946 | 71 | 350 | 0.0 | 0.0 | 0.00 | 0.00 | 0.00 | 77 | 1019.3 |
| 20260830152449 | 71 | 350 | 0.0 | 0.0 | 0.00 | 0.00 | 0.00 | 78 | 1019.3 |
| 20260830151930 | 71 | 350 | 0.0 | 0.0 | 0.00 | 0.00 | 0.00 | 78 | 1019.3 |
| 20260830151415 | 71 | 350 | 0.0 | 0.0 | 0.00 | 0.00 | 0.00 | 78 | 1019.4 |
| 20260830150945 | 71 | 350 | 0.0 | 0.0 | 0.00 | 0.00 | 0.00 | 79 | 1019.5 |
| 20260830150439 | 71 | 350 | 0.0 | 0.0 | 0.00 | 0.00 | 0.00 | 80 | 1019.5 |
| 20260830145927 | 71 | 350 | 0.0 | 0.0 | 0.00 | 0.00 | 0.00 | 80 | 1019.4 |
| 20260830145434 | 71 | 350 | 0.0 | 0.0 | 0.00 | 0.00 | 0.00 | 80 | 1019.4 |
| 20260830144911 | 71 | 350 | 0.0 | 0.0 | 0.00 | 0.00 | 0.00 | 80 | 1019.3 |
| 20260830144427 | 71 | 350 | 0.0 | 0.0 | 0.00 | 0.00 | 0.00 | 80 | 1019.2 |
| 20260830143932 | 70 | 350 | 0.0 | 0.0 | 0.00 | 0.00 | 0.00 | 80 | 1019.2 |
| 20260830143438 | 70 | 350 | 0.0 | 0.0 | 0.00 | 0.00 | 0.00 | 79 | 1019.2 |
| 20260830142930 | 70 | 350 | 0.0 | 0.0 | 0.00 | 0.00 | 0.00 | 81 | 1019.3 |
| 20260830142409 | 70 | 350 | 0.0 | 2.0 | 0.00 | 0.00 | 0.00 | 81 | 1019.2 |
| 20260830141913 | 70 | 350 | 0.0 | 2.0 | 0.00 | 0.00 | 0.00 | 82 | 1019.2 |
| 20260830141419 | 70 | 350 | 1.0 | 2.0 | 0.00 | 0.00 | 0.00 | 83 | 1019.2 |
| 20260830140919 | 70 | 350 | 0.0 | 1.0 | 0.00 | 0.00 | 0.00 | 82 | 1019.0 |
| 20260830140423 | 70 | 350 | 0.0 | 1.0 | 0.00 | 0.00 | 0.00 | 83 | 1019.0 |
| 20260830135937 | 69 | 236 | 0.0 | 0.0 | 0.00 | 0.00 | 0.00 | 83 | 1019.0 |
| 20260830135414 | 69 | 236 | 0.0 | 0.0 | 0.00 | 0.00 | 0.00 | 83 | 1019.0 |
| 20260830134925 | 69 | 236 | 0.0 | 0.0 | 0.00 | 0.00 | 0.00 | 83 | 1019.0 |
| 20260830134412 | 69 | 236 | 0.0 | 0.0 | 0.00 | 0.00 | 0.00 | 84 | 1019.0 |
| 20260830133923 | 68 | 236 | 0.0 | 0.0 | 0.00 | 0.00 | 0.00 | 84 | 1018.9 |
| 20260830133442 | 68 | 236 | 0.0 | 0.0 | 0.00 | 0.00 | 0.00 | 83 | 1018.9 |
| 20260830132938 | 68 | 236 | 0.0 | 0.0 | 0.00 | 0.00 | 0.00 | 84 | 1018.9 |
| 20260830132432 | 68 | 236 | 0.0 | 0.0 | 0.00 | 0.00 | 0.00 | 85 | 1018.7 |
| 20260830131921 | 67 | 236 | 0.0 | 0.0 | 0.00 | 0.00 | 0.00 | 87 | 1018.6 |
| 20260830131420 | 67 | 236 | 0.0 | 2.0 | 0.00 | 0.00 | 0.00 | 87 | 1018.7 |
| 20260830130912 | 67 | 236 | 0.0 | 2.0 | 0.00 | 0.00 | 0.00 | 86 | 1018.8 |
| 20260830130426 | 66 | 229 | 0.0 | 0.0 | 0.00 | 0.00 | 0.00 | 86 | 1018.8 |
| 20260830125933 | 66 | 229 | 0.0 | 0.0 | 0.00 | 0.00 | 0.00 | 85 | 1018.9 |
| 20260830125428 | 66 | 229 | 0.0 | 0.0 | 0.00 | 0.00 | 0.00 | 86 | 1018.9 |
| 20260830124933 | 66 | 229 | 0.0 | 0.0 | 0.00 | 0.00 | 0.00 | 86 | 1018.8 |
| 20260830124425 | 66 | 229 | 0.0 | 0.0 | 0.00 | 0.00 | 0.00 | 85 | 1019.0 |
| 20260830123936 | 66 | 229 | 0.0 | 0.0 | 0.00 | 0.00 | 0.00 | 85 | 1019.0 |
| 20260830123507 | 66 | 229 | 0.0 | 0.0 | 0.00 | 0.00 | 0.00 | 85 | 1019.0 |
| 20260830122929 | 66 | 235 | 0.0 | 0.0 | 0.00 | 0.00 | 0.00 | 86 | 1018.9 |
| 20260830122434 | 66 | 235 | 0.0 | 0.0 | 0.00 | 0.00 | 0.00 | 85 | 1018.9 |
| 20260830121940 | 65 | 235 | 0.0 | 0.0 | 0.00 | 0.00 | 0.00 | 85 | 1018.8 |
| 20260830121421 | 65 | 235 | 0.0 | 0.0 | 0.00 | 0.00 | 0.00 | 84 | 1018.9 |
| 20260830120934 | 65 | 235 | 0.0 | 0.0 | 0.00 | 0.00 | 0.00 | 84 | 1019.0 |
| 20260830120435 | 65 | 235 | 0.0 | 0.0 | 0.00 | 0.00 | 0.00 | 84 | 1019.1 |
| 20260830115950 | 65 | 235 | 0.0 | 0.0 | 0.00 | 0.00 | 0.00 | 84 | 1019.2 |
| 20260830115417 | 65 | 235 | 0.0 | 0.0 | 0.00 | 0.00 | 0.00 | 84 | 1019.0 |
| 20260830114928 | 65 | 235 | 0.0 | 0.0 | 0.00 | 0.00 | 0.00 | 83 | 1019.1 |
| 20260830114414 | 65 | 235 | 0.0 | 0.0 | 0.00 | 0.00 | 0.00 | 82 | 1019.2 |
| 20260830113933 | 65 | 235 | 0.0 | 0.0 | 0.00 | 0.00 | 0.00 | 82 | 1019.1 |
| 20260830113500 | 65 | 235 | 0.0 | 0.0 | 0.00 | 0.00 | 0.00 | 82 | 1019.1 |
| 20260830112914 | 65 | 235 | 0.0 | 0.0 | 0.00 | 0.00 | 0.00 | 81 | 1019.2 |
| 20260830112447 | 65 | 235 | 0.0 | 0.0 | 0.00 | 0.00 | 0.00 | 81 | 1019.0 |
| 20260830111936 | 65 | 235 | 0.0 | 0.0 | 0.00 | 0.00 | 0.00 | 80 | 1019.1 |
| 20260830111434 | 65 | 235 | 0.0 | 0.0 | 0.00 | 0.00 | 0.00 | 79 | 1019.1 |
| 20260830110917 | 65 | 235 | 0.0 | 0.0 | 0.00 | 0.00 | 0.00 | 79 | 1019.0 |
| 20260830110435 | 65 | 235 | 0.0 | 0.0 | 0.00 | 0.00 | 0.00 | 79 | 1019.0 |
| 20260830105929 | 65 | 235 | 0.0 | 0.0 | 0.00 | 0.00 | 0.00 | 78 | 1019.0 |
| 20260830105432 | 65 | 235 | 0.0 | 0.0 | 0.00 | 0.00 | 0.00 | 77 | 1018.9 |
| 20260830104927 | 66 | 235 | 0.0 | 0.0 | 0.00 | 0.00 | 0.00 | 77 | 1019.0 |
| 20260830104442 | 66 | 235 | 0.0 | 0.0 | 0.00 | 0.00 | 0.00 | 77 | 1019.0 |
| 20260830103914 | 66 | 235 | 0.0 | 0.0 | 0.00 | 0.00 | 0.00 | 77 | 1019.0 |
| 20260830103503 | 66 | 235 | 0.0 | 0.0 | 0.00 | 0.00 | 0.00 | 77 | 1019.1 |
| 20260830102917 | 66 | 235 | 0.0 | 0.0 | 0.00 | 0.00 | 0.00 | 76 | 1019.1 |
| 20260830102442 | 67 | 235 | 0.0 | 0.0 | 0.00 | 0.00 | 0.00 | 76 | 1019.1 |
| 20260830101927 | 67 | 235 | 0.0 | 0.0 | 0.00 | 0.00 | 0.00 | 75 | 1019.0 |
| 20260830101429 | 67 | 235 | 0.0 | 0.0 | 0.00 | 0.00 | 0.00 | 75 | 1019.0 |
| 20260830100934 | 67 | 235 | 0.0 | 0.0 | 0.00 | 0.00 | 0.00 | 73 | 1019.2 |
| 20260830100447 | 67 | 235 | 0.0 | 0.0 | 0.00 | 0.00 | 0.00 | 72 | 1019.2 |
| 20260830095912 | 67 | 235 | 0.0 | 0.0 | 0.00 | 0.00 | 0.00 | 71 | 1019.3 |
| 20260830095431 | 67 | 235 | 0.0 | 0.0 | 0.00 | 0.00 | 0.00 | 71 | 1019.3 |
| 20260830094921 | 67 | 235 | 0.0 | 0.0 | 0.00 | 0.00 | 0.00 | 71 | 1019.3 |
| 20260830094433 | 68 | 235 | 0.0 | 0.0 | 0.00 | 0.00 | 0.00 | 70 | 1019.2 |
| 20260830094005 | 68 | 235 | 0.0 | 0.0 | 0.00 | 0.00 | 0.00 | 70 | 1019.2 |
| 20260830093412 | 68 | 235 | 0.0 | 0.0 | 0.00 | 0.00 | 0.00 | 70 | 1019.1 |
| 20260830092922 | 68 | 235 | 0.0 | 0.0 | 0.00 | 0.00 | 0.00 | 70 | 1019.2 |
| 20260830092437 | 68 | 235 | 0.0 | 0.0 | 0.00 | 0.00 | 0.00 | 69 | 1019.2 |
| 20260830091913 | 68 | 235 | 0.0 | 0.0 | 0.00 | 0.00 | 0.00 | 69 | 1019.2 |
| 20260830091435 | 68 | 235 | 0.0 | 0.0 | 0.00 | 0.00 | 0.00 | 69 | 1019.3 |
| 20260830090912 | 68 | 235 | 0.0 | 0.0 | 0.00 | 0.00 | 0.00 | 69 | 1019.2 |
| 20260830090414 | 69 | 235 | 0.0 | 0.0 | 0.00 | 0.00 | 0.00 | 69 | 1019.2 |
| 20260830085918 | 69 | 235 | 0.0 | 0.0 | 0.00 | 0.00 | 0.00 | 68 | 1019.2 |
| 20260830085418 | 69 | 235 | 0.0 | 0.0 | 0.00 | 0.00 | 0.00 | 68 | 1019.2 |
| 20260830084920 | 69 | 235 | 0.0 | 0.0 | 0.00 | 0.00 | 0.00 | 68 | 1019.3 |
| 20260830084424 | 69 | 235 | 0.0 | 0.0 | 0.00 | 0.00 | 0.00 | 67 | 1019.3 |
| 20260830083932 | 69 | 235 | 0.0 | 0.0 | 0.00 | 0.00 | 0.00 | 67 | 1019.4 |
| 20260830083457 | 69 | 235 | 0.0 | 0.0 | 0.00 | 0.00 | 0.00 | 67 | 1019.5 |
| 20260830082912 | 70 | 235 | 0.0 | 0.0 | 0.00 | 0.00 | 0.00 | 67 | 1019.5 |
| 20260830082441 | 70 | 235 | 0.0 | 0.0 | 0.00 | 0.00 | 0.00 | 66 | 1019.6 |
| 20260830081917 | 70 | 235 | 0.0 | 0.0 | 0.00 | 0.00 | 0.00 | 66 | 1019.6 |
| 20260830081437 | 70 | 235 | 0.0 | 0.0 | 0.00 | 0.00 | 0.00 | 66 | 1019.5 |
| 20260830080928 | 70 | 235 | 0.0 | 0.0 | 0.00 | 0.00 | 0.00 | 66 | 1019.5 |
| 20260830080504 | 70 | 235 | 0.0 | 0.0 | 0.00 | 0.00 | 0.00 | 66 | 1019.6 |
| 20260830075920 | 70 | 235 | 0.0 | 0.0 | 0.00 | 0.00 | 0.00 | 66 | 1019.6 |
| 20260830075439 | 70 | 235 | 0.0 | 0.0 | 0.00 | 0.00 | 0.00 | 66 | 1019.7 |
| 20260830074915 | 70 | 257 | 0.0 | 0.0 | 0.00 | 0.00 | 0.00 | 66 | 1019.6 |
| 20260830074437 | 70 | 257 | 0.0 | 0.0 | 0.00 | 0.00 | 0.00 | 67 | 1019.6 |
| 20260830073927 | 69 | 257 | 0.0 | 0.0 | 0.00 | 0.00 | 0.00 | 68 | 1019.6 |
| 20260830073437 | 69 | 257 | 0.0 | 0.0 | 0.00 | 0.00 | 0.00 | 68 | 1019.6 |
| 20260830072958 | 69 | 257 | 0.0 | 0.0 | 0.00 | 0.00 | 0.00 | 69 | 1019.5 |
| 20260830072425 | 69 | 257 | 0.0 | 0.0 | 0.00 | 0.00 | 0.00 | 69 | 1019.5 |
| 20260830071929 | 69 | 257 | 0.0 | 0.0 | 0.00 | 0.00 | 0.00 | 70 | 1019.6 |
| 20260830071449 | 68 | 257 | 0.0 | 0.0 | 0.00 | 0.00 | 0.00 | 71 | 1019.6 |
| 20260830070931 | 68 | 257 | 0.0 | 0.0 | 0.00 | 0.00 | 0.00 | 72 | 1019.6 |
| 20260830070433 | 68 | 257 | 0.0 | 0.0 | 0.00 | 0.00 | 0.00 | 72 | 1019.6 |
| 20260830065940 | 67 | 257 | 0.0 | 0.0 | 0.00 | 0.00 | 0.00 | 73 | 1019.6 |
| 20260830065421 | 67 | 257 | 0.0 | 0.0 | 0.00 | 0.00 | 0.00 | 74 | 1019.6 |
| 20260830064932 | 67 | 257 | 0.0 | 0.0 | 0.00 | 0.00 | 0.00 | 74 | 1019.6 |
| 20260830064421 | 66 | 257 | 0.0 | 0.0 | 0.00 | 0.00 | 0.00 | 75 | 1019.7 |
| 20260830063949 | 66 | 257 | 0.0 | 0.0 | 0.00 | 0.00 | 0.00 | 76 | 1019.7 |
| 20260830063440 | 66 | 257 | 0.0 | 0.0 | 0.00 | 0.00 | 0.00 | 77 | 1019.8 |
| 20260830062914 | 66 | 257 | 0.0 | 0.0 | 0.00 | 0.00 | 0.00 | 77 | 1019.9 |
| 20260830062413 | 65 | 257 | 0.0 | 0.0 | 0.00 | 0.00 | 0.00 | 79 | 1020.0 |
| 20260830061917 | 65 | 257 | 0.0 | 0.0 | 0.00 | 0.00 | 0.00 | 80 | 1020.0 |
| 20260830061440 | 65 | 257 | 0.0 | 0.0 | 0.00 | 0.00 | 0.00 | 81 | 1020.1 |
| 20260830060927 | 65 | 257 | 0.0 | 0.0 | 0.00 | 0.00 | 0.00 | 81 | 1020.2 |
| 20260830060429 | 65 | 257 | 0.0 | 0.0 | 0.00 | 0.00 | 0.00 | 82 | 1020.2 |
| 20260830055931 | 65 | 257 | 0.0 | 0.0 | 0.00 | 0.00 | 0.00 | 82 | 1020.2 |
| 20260830055417 | 65 | 257 | 0.0 | 0.0 | 0.00 | 0.00 | 0.00 | 81 | 1020.1 |
| 20260830054947 | 65 | 257 | 0.0 | 0.0 | 0.00 | 0.00 | 0.00 | 82 | 1020.0 |
| 20260830054438 | 64 | 257 | 0.0 | 0.0 | 0.00 | 0.00 | 0.00 | 82 | 1019.9 |
| 20260830053915 | 64 | 257 | 0.0 | 0.0 | 0.00 | 0.00 | 0.00 | 82 | 1020.0 |
| 20260830053447 | 65 | 257 | 0.0 | 0.0 | 0.00 | 0.00 | 0.00 | 82 | 1020.0 |
| 20260830052928 | 65 | 257 | 0.0 | 0.0 | 0.00 | 0.00 | 0.00 | 82 | 1020.0 |
| 20260830052421 | 65 | 257 | 0.0 | 0.0 | 0.00 | 0.00 | 0.00 | 82 | 1020.1 |
| 20260830051926 | 65 | 257 | 0.0 | 0.0 | 0.00 | 0.00 | 0.00 | 82 | 1020.2 |
| 20260830051414 | 65 | 257 | 0.0 | 0.0 | 0.00 | 0.00 | 0.00 | 82 | 1020.2 |
| 20260830050916 | 65 | 257 | 0.0 | 0.0 | 0.00 | 0.00 | 0.00 | 82 | 1020.2 |
| 20260830050438 | 65 | 257 | 0.0 | 0.0 | 0.00 | 0.00 | 0.00 | 82 | 1020.2 |
| 20260830045948 | 65 | 257 | 0.0 | 0.0 | 0.00 | 0.00 | 0.00 | 81 | 1020.1 |
| 20260830045428 | 65 | 257 | 0.0 | 0.0 | 0.00 | 0.00 | 0.00 | 81 | 1020.1 |
| 20260830044922 | 65 | 257 | 0.0 | 0.0 | 0.00 | 0.00 | 0.00 | 81 | 1020.0 |
| 20260830044413 | 65 | 257 | 0.0 | 0.0 | 0.00 | 0.00 | 0.00 | 81 | 1019.9 |
| 20260830043923 | 65 | 257 | 0.0 | 0.0 | 0.00 | 0.00 | 0.00 | 81 | 1020.0 |
| 20260830043415 | 66 | 257 | 0.0 | 0.0 | 0.00 | 0.00 | 0.00 | 81 | 1020.0 |
| 20260830042924 | 65 | 257 | 0.0 | 0.0 | 0.00 | 0.00 | 0.00 | 79 | 1020.0 |
| 20260830042445 | 66 | 257 | 0.0 | 0.0 | 0.00 | 0.00 | 0.00 | 79 | 1019.9 |
| 20260830041944 | 66 | 257 | 0.0 | 0.0 | 0.00 | 0.00 | 0.00 | 79 | 1019.9 |
| 20260830041429 | 66 | 257 | 0.0 | 0.0 | 0.00 | 0.00 | 0.00 | 79 | 1019.9 |
| 20260830040950 | 66 | 257 | 0.0 | 0.0 | 0.00 | 0.00 | 0.00 | 79 | 1020.0 |
| 20260830040414 | 66 | 257 | 0.0 | 0.0 | 0.00 | 0.00 | 0.00 | 79 | 1020.1 |
| 20260830035932 | 66 | 257 | 0.0 | 0.0 | 0.00 | 0.00 | 0.00 | 79 | 1020.1 |
| 20260830035427 | 66 | 257 | 0.0 | 0.0 | 0.00 | 0.00 | 0.00 | 79 | 1020.2 |
| 20260830034928 | 66 | 257 | 0.0 | 0.0 | 0.00 | 0.00 | 0.00 | 79 | 1020.1 |
| 20260830034415 | 66 | 257 | 0.0 | 0.0 | 0.00 | 0.00 | 0.00 | 79 | 1020.1 |
| 20260830033924 | 66 | 257 | 0.0 | 0.0 | 0.00 | 0.00 | 0.00 | 79 | 1020.1 |
| 20260830033412 | 66 | 257 | 0.0 | 0.0 | 0.00 | 0.00 | 0.00 | 79 | 1020.1 |
| 20260830032917 | 66 | 257 | 0.0 | 0.0 | 0.00 | 0.00 | 0.00 | 79 | 1020.1 |
| 20260830032426 | 66 | 257 | 0.0 | 0.0 | 0.00 | 0.00 | 0.00 | 79 | 1020.1 |
| 20260830031916 | 66 | 257 | 0.0 | 0.0 | 0.00 | 0.00 | 0.00 | 78 | 1020.0 |
| 20260830031438 | 67 | 257 | 0.0 | 0.0 | 0.00 | 0.00 | 0.00 | 78 | 1020.0 |
| 20260830030932 | 67 | 257 | 0.0 | 0.0 | 0.00 | 0.00 | 0.00 | 78 | 1020.0 |
| 20260830030437 | 67 | 257 | 0.0 | 0.0 | 0.00 | 0.00 | 0.00 | 78 | 1020.1 |
| 20260830025919 | 67 | 257 | 0.0 | 0.0 | 0.00 | 0.00 | 0.00 | 78 | 1020.1 |
| 20260830025425 | 67 | 257 | 0.0 | 0.0 | 0.00 | 0.00 | 0.00 | 77 | 1020.2 |
| 20260830024946 | 67 | 257 | 0.0 | 0.0 | 0.00 | 0.00 | 0.00 | 77 | 1020.1 |
| 20260830024420 | 67 | 257 | 0.0 | 0.0 | 0.00 | 0.00 | 0.00 | 75 | 1020.1 |
| 20260830023933 | 67 | 257 | 0.0 | 0.0 | 0.00 | 0.00 | 0.00 | 75 | 1020.0 |
| 20260830023419 | 68 | 257 | 0.0 | 0.0 | 0.00 | 0.00 | 0.00 | 75 | 1020.1 |
| 20260830022926 | 68 | 257 | 0.0 | 0.0 | 0.00 | 0.00 | 0.00 | 76 | 1020.1 |
| 20260830022436 | 68 | 257 | 0.0 | 0.0 | 0.00 | 0.00 | 0.00 | 75 | 1020.1 |
| 20260830021924 | 68 | 257 | 0.0 | 0.0 | 0.00 | 0.00 | 0.00 | 75 | 1020.1 |
| 20260830021432 | 68 | 257 | 0.0 | 0.0 | 0.00 | 0.00 | 0.00 | 76 | 1020.1 |
| 20260830021000 | 68 | 257 | 0.0 | 0.0 | 0.00 | 0.00 | 0.00 | 75 | 1020.1 |
| 20260830020428 | 68 | 257 | 0.0 | 0.0 | 0.00 | 0.00 | 0.00 | 75 | 1020.1 |
| 20260830015934 | 68 | 257 | 0.0 | 0.0 | 0.00 | 0.00 | 0.00 | 75 | 1020.2 |
| 20260830015448 | 68 | 257 | 0.0 | 0.0 | 0.00 | 0.00 | 0.00 | 75 | 1020.2 |